Weather in Plymouth

Montserrat     16°42′19″N   62°12′39″W
temp.,
°C
wind,
m/s
gust,
m/s
humid.,
%
clouds,
%
prec.,
mm/h
press.,
hPa
HPBL,
m
4 december, sat
sat423:00+27e88765 0.1 1014932
02:00+27e8873100 0.2 10131005
05:00+27e8975100 0.3 1013985
08:00+27e897366 0.3 10151084
11:00+27e897226 0.4 10161087
14:00+27e897448 0.4 10141009
17:00+27e897344 0.1 10141056
20:00+27e91075100 0.3 10161022
5 december, sun
sun523:00+27e9107380 0.1 10161140
02:00+27e910767 0.1 10151021
05:00+27e1011760 0.8 10151114
08:00+27e1011758 1.5 10181098
11:00+27e11127013 0.1 10181116
14:00+27e1011735 0.1 10151148
17:00+27ene11127699 0.1 10151123
20:00+27ene1012765 0.3 10171119
6 december, mon
mon623:00+27ene10117553 0.1 10171129
02:00+27e101174100 0.1 10161152
05:00+27ene111170100 0.8 10161162
08:00+27ene10117451 0.9 10181168
11:00+27e10117422 0.2 10181114
14:00+27ene91070100 0.3 10151165
17:00+27ene9117352 0.0 10151123
20:00+27ene101174100 0.3 10161105
7 december, tue
tue723:00+27ene10117543 0.3 10161099
02:00+27ene10117493 0.8 10141111
05:00+27ene1011703 0.2 10141211
08:00+27e1011721 0.5 10161146
11:00+27ene910720 0.1 10161148
14:00+27ene910710 0.2 10131152
17:00+27ene910730 0.1 10131140
20:00+27ene1011740 0.1 10151106
8 december, wed
wed823:00+27ene1012720 0.1 10141223
02:00+27ene1112730 0.4 10131185
05:00+27ene1011730 0.3 10131147
08:00+27ene1011722 0.7 10151188
11:00+27ene1011720 0.1 10151199
14:00+27e910720 0.3 10131134
17:00+27ene910720 0.2 10131138
20:00+27ene1010740 0.3 10151122